#timestamp,LO_Frequency,Hit 
1501556415.7,286047024.0,N
1501556435.5,286047026.0,N
1501556455.3,286047024.1,N
1501556475.1,286047026.1,N
1501556495.5,286047026.7,N
1501556515.3,286047028.3,N
1501556535.1,286047027.7,N
1501556555.9,286047029.1,N
1501556575.7,286047027.9,N
1501556595.5,286047027.1,N
1501556615.4,286047027.1,N
1501556635.2,286047026.9,N
1501556655.0,286047025.3,N
1501556655.9,286047025.3,N
1501556675.8,286047027.7,N
1501556695.6,286047029.7,N
1501556715.4,286047027.1,N
1501556735.3,286047024.9,N
1501556755.1,286047026.4,N
1501556756.0,286047026.4,N
1501556775.8,286047022.1,N
1501556795.7,286047025.1,N
1501556815.5,286047023.9,N
1501556835.3,286047028.1,N
1501556855.1,286047024.4,N
1501556875.9,286047024.4,N
1501556895.7,286047024.6,N
1501556915.5,286047024.3,N
1501556935.4,286047026.8,N
1501556955.2,286047024.9,N
1501556975.0,286047025.0,N
1501556975.9,286047025.0,N
1501556995.8,286047027.5,N
1501557015.6,286047030.0,N
1501557035.4,286047030.0,N
1501557055.3,286047028.7,N
1501557075.1,286047027.7,N
1501557076.0,286047027.7,N
1501557095.8,286047027.0,N
1501557115.7,286047027.9,N
1501557135.5,286047028.1,N
1501557155.3,286047027.1,N
1501557175.1,286047027.7,N
1501557195.9,286047025.4,N
1501557215.7,286047028.3,N
1501557235.5,286047025.5,N
1501557255.4,286047030.0,N
1501557275.2,286047027.3,N
1501557295.0,286047028.0,N
1501557295.9,286047028.0,N
1501557315.8,286047028.8,N
1501557335.6,286047028.2,N
1501557355.4,286047028.2,N
1501557375.3,286047028.1,N
1501557395.1,286047027.2,N
1501557396.0,286047027.2,N
1501557415.5,286047027.7,N
1501557435.4,286047027.9,N
1501557455.2,286047029.5,N
1501557475.0,286047028.7,N
1501557475.9,286047028.7,N
1501557495.8,286047031.3,N
1501557515.6,286047031.1,N
1501557535.4,286047029.0,N
1501557555.2,286047027.0,N
1501557575.1,286047026.4,N
1501557576.0,286047026.4,N
1501557595.8,286047028.0,N
1501557615.6,286047029.8,N
1501557635.5,286047031.3,N
1501557655.3,286047029.0,N
1501557675.1,286047028.7,N
1501557695.9,286047028.7,N
1501557715.7,286047031.1,N
1501557735.5,286047028.8,N
1501557755.4,286047030.0,N
1501557775.2,286047027.8,N
1501557795.0,286047028.2,N
1501557795.9,286047028.2,N
1501557815.8,286047027.4,N
1501557835.6,286047027.6,N
1501557855.4,286047026.9,N
1501557875.3,286047027.8,N
1501557895.1,286047027.3,N
1501557896.0,286047027.3,N
1501557915.8,286047029.1,N
1501557935.7,286047032.3,N
1501557955.5,286047033.6,N
1501557975.3,286047032.6,N
1501557995.1,286047030.4,N
1501558015.9,286047028.8,N
1501558035.7,286047029.7,N
1501558055.5,286047026.9,N
1501558075.5,286047029.1,N
1501558095.3,286047029.3,N
1501558115.2,286047027.2,N
1501558135.0,286047027.3,N
1501558135.9,286047027.3,N
1501558155.7,286047027.9,N
1501558175.6,286047027.2,N
1501558195.4,286047029.2,N
1501558215.2,286047030.1,N
1501558235.1,286047033.2,N
1501558236.0,286047033.2,N
1501558255.8,286047030.3,N
1501558275.6,286047031.5,N
1501558295.5,286047031.2,N
1501558315.3,286047031.4,N
1501558335.1,286047031.1,N
1501558355.9,286047030.9,N
1501558375.7,286047030.7,N
1501558395.5,286047030.4,N
1501558415.4,286047032.7,N
1501558435.2,286047032.6,N
1501558455.0,286047032.1,N
1501558455.9,286047032.1,N
1501558475.8,286047034.6,N
1501558495.6,286047034.2,N
1501558515.4,286047033.4,N
1501558535.3,286047035.4,N
1501558555.1,286047033.7,N
1501558556.0,286047033.7,N
1501558575.8,286047033.6,N
1501558595.7,286047036.0,N
1501558615.5,286047036.0,N
1501558635.3,286047034.3,N
1501558655.2,286047032.1,N
1501558675.9,286047033.1,N
1501558695.7,286047028.6,N
1501558715.6,286047030.7,N
1501558735.4,286047030.8,N
1501558755.2,286047033.0,N
1501558775.0,286047032.1,N
1501558776.0,286047032.1,N
1501558795.8,286047032.8,N
1501558815.6,286047034.2,N
1501558835.4,286047033.0,N
1501558855.3,286047031.3,N
1501558875.1,286047030.3,N
1501558895.8,286047030.1,N
1501558915.7,286047032.4,N
1501558935.5,286047032.0,N
1501558955.3,286047033.9,N
1501558975.2,286047033.7,N
1501558995.9,286047036.1,N
1501559015.7,286047036.2,N
1501559035.6,286047034.5,N
1501559055.4,286047033.7,N
1501559075.2,286047034.7,N
1501559095.1,286047032.6,N
1501559096.0,286047032.6,N
1501559115.8,286047032.6,N
1501559135.6,286047032.1,N
1501559155.5,286047034.5,N
1501559175.3,286047032.6,N
1501559195.1,286047032.9,N
1501559215.9,286047032.5,N
1501559235.7,286047031.8,N
1501559255.5,286047034.4,N
1501559275.4,286047031.7,N
1501559295.2,286047032.1,N
1501559315.0,286047033.6,N
1501559315.9,286047033.6,N
1501559335.8,286047036.2,N
1501559355.6,286047037.7,N
1501559375.4,286047037.2,N
1501559395.2,286047037.8,N
1501559415.1,286047037.8,N
1501559416.0,286047037.8,N
1501559435.8,286047037.4,N
1501559455.6,286047037.5,N
1501559475.5,286047033.6,N
1501559495.3,286047034.4,N
1501559515.1,286047031.8,N
1501559535.9,286047034.5,N
1501559555.7,286047033.9,N
1501559575.5,286047032.1,N
1501559595.4,286047036.0,N
1501559615.2,286047033.3,N
1501559635.0,286047037.6,N
1501559635.9,286047037.6,N
1501559655.8,286047039.6,N
1501559675.6,286047036.5,N
1501559695.4,286047036.8,N
1501559715.3,286047038.4,N
1501559735.1,286047036.7,N
1501559736.0,286047036.7,N
1501559755.8,286047037.3,N
1501559775.7,286047038.7,N
1501559795.5,286047038.3,N
1501559815.3,286047039.4,N
1501559835.2,286047036.8,N
1501559855.9,286047039.3,N
1501559875.7,286047042.8,N
1501559895.5,286047042.8,N
1501559915.4,286047041.9,N
1501559935.2,286047039.7,N
1501559955.0,286047043.8,N
1501559955.9,286047043.8,N
1501559975.8,286047041.3,N
1501559995.6,286047042.5,N
